DAL239 KDEN-KLAX

Flight info

Callsign DAL239
Flight time 1h 54m
Altitude 40000
Route BAYLR6 TEHRU JASSE Q90 DNERO ANJLL4
Aircraft A359/H-SDE2E3GHIJ3J4J5LM1ORWXY/LB1D1

Departure

Time 2026-04-20 01:09
Airport Denver International Airport (KDEN)

Arrival

Time 2026-04-20 03:03
Airport Los Angeles International Airport (KLAX)
Time Latitude Longitude Altitude Speed Heading
2026-04-20 00:40 39.85804 -104.67550 5386 ft 0 kts 357°
2026-04-20 00:53 39.85795 -104.67549 5382 ft 4 kts 356°
2026-04-20 00:53 39.85768 -104.67546 5385 ft 4 kts 350°
2026-04-20 00:53 39.85743 -104.67537 5384 ft 4 kts 323°
2026-04-20 00:54 39.85733 -104.67523 5385 ft 4 kts 277°
2026-04-20 00:54 39.85727 -104.67522 5385 ft 1 kts 270°
2026-04-20 00:54 39.85725 -104.67524 5385 ft 0 kts 270°
2026-04-20 01:00 39.85725 -104.67529 5385 ft 3 kts 268°
2026-04-20 01:00 39.85725 -104.67568 5385 ft 5 kts 271°
2026-04-20 01:00 39.85723 -104.67608 5385 ft 3 kts 252°
2026-04-20 01:00 39.85716 -104.67618 5385 ft 1 kts 227°
2026-04-20 01:01 39.85715 -104.67621 5385 ft 0 kts 236°
2026-04-20 01:01 39.85699 -104.67638 5386 ft 7 kts 213°
2026-04-20 01:01 39.85663 -104.67644 5384 ft 8 kts 182°
2026-04-20 01:01 39.85608 -104.67668 5386 ft 8 kts 227°
2026-04-20 01:02 39.85595 -104.67719 5386 ft 6 kts 261°
2026-04-20 01:02 39.85593 -104.67777 5386 ft 7 kts 269°
2026-04-20 01:02 39.85596 -104.67841 5386 ft 7 kts 271°
2026-04-20 01:02 39.85596 -104.67913 5386 ft 8 kts 270°
2026-04-20 01:03 39.85595 -104.67992 5387 ft 9 kts 270°
2026-04-20 01:03 39.85595 -104.68077 5387 ft 10 kts 270°
2026-04-20 01:03 39.85596 -104.68154 5388 ft 3 kts 271°
2026-04-20 01:03 39.85596 -104.68186 5386 ft 5 kts 271°
2026-04-20 01:04 39.85597 -104.68253 5384 ft 10 kts 271°
2026-04-20 01:04 39.85597 -104.68352 5387 ft 11 kts 262°
2026-04-20 01:04 39.85561 -104.68393 5382 ft 7 kts 199°
2026-04-20 01:04 39.85501 -104.68401 5382 ft 9 kts 181°
2026-04-20 01:05 39.85433 -104.68403 5385 ft 10 kts 181°
2026-04-20 01:05 39.85359 -104.68404 5386 ft 11 kts 180°
2026-04-20 01:05 39.85282 -104.68404 5386 ft 11 kts 180°
2026-04-20 01:05 39.85217 -104.68418 5386 ft 4 kts 224°
2026-04-20 01:06 39.85210 -104.68461 5384 ft 6 kts 264°
2026-04-20 01:06 39.85205 -104.68544 5379 ft 12 kts 268°
2026-04-20 01:06 39.85205 -104.68673 5374 ft 17 kts 269°
2026-04-20 01:06 39.85201 -104.68845 5364 ft 21 kts 268°
2026-04-20 01:07 39.85195 -104.69043 5359 ft 24 kts 270°
2026-04-20 01:07 39.85198 -104.69278 5352 ft 28 kts 272°
2026-04-20 01:07 39.85202 -104.69526 5356 ft 20 kts 270°
2026-04-20 01:07 39.85236 -104.69654 5356 ft 12 kts 329°
2026-04-20 01:08 39.85315 -104.69663 5358 ft 16 kts 359°
2026-04-20 01:08 39.85635 -104.69654 5368 ft 79 kts
2026-04-20 01:08 39.86400 -104.69646 5365 ft 139 kts
2026-04-20 01:08 39.87505 -104.69630 5547 ft 174 kts
2026-04-20 01:09 39.88716 -104.69595 6174 ft 172 kts
2026-04-20 01:09 39.89897 -104.69746 6632 ft 180 kts 342°
2026-04-20 01:09 39.90964 -104.70739 6803 ft 199 kts 324°
2026-04-20 01:09 39.91822 -104.72298 6844 ft 228 kts 291°
2026-04-20 01:10 39.91814 -104.74435 6968 ft 252 kts 251°
2026-04-20 01:10 39.89052 -104.77534 7444 ft 285 kts 206°
2026-04-20 01:10 39.87290 -104.78767 7975 ft 290 kts 210°
2026-04-20 01:11 39.85592 -104.80195 8549 ft 292 kts 216°
2026-04-20 01:11 39.84000 -104.81828 9195 ft 292 kts 221°
2026-04-20 01:11 39.82537 -104.83677 9757 ft 294 kts 227°
2026-04-20 01:11 39.81062 -104.85539 10083 ft 296 kts 222°
2026-04-20 01:12 39.79498 -104.87262 10134 ft 293 kts 222°
2026-04-20 01:12 39.78091 -104.89168 10133 ft 291 kts 234°
2026-04-20 01:12 39.77151 -104.91478 10136 ft 290 kts 252°
2026-04-20 01:12 39.76596 -104.94036 10265 ft 301 kts 256°
2026-04-20 01:13 39.76065 -104.96743 10471 ft 317 kts 256°
2026-04-20 01:13 39.75489 -104.99567 10706 ft 330 kts 255°
2026-04-20 01:13 39.74836 -105.02454 11115 ft 336 kts 252°
2026-04-20 01:13 39.73987 -105.05288 11648 ft 338 kts 249°
2026-04-20 01:14 39.73072 -105.08106 12230 ft 338 kts 248°
2026-04-20 01:14 39.72150 -105.10915 12796 ft 339 kts 248°
2026-04-20 01:14 39.71223 -105.13738 13263 ft 342 kts 249°
2026-04-20 01:14 39.70288 -105.16590 13769 ft 344 kts 249°
2026-04-20 01:15 39.69346 -105.19456 14293 ft 346 kts 249°
2026-04-20 01:15 39.68398 -105.22341 14792 ft 348 kts 249°
2026-04-20 01:15 39.67445 -105.25245 15326 ft 350 kts 249°
2026-04-20 01:15 39.66489 -105.28158 15793 ft 352 kts 249°
2026-04-20 01:16 39.65523 -105.31093 16304 ft 354 kts 249°
2026-04-20 01:16 39.64560 -105.33998 16801 ft 357 kts 249°
2026-04-20 01:16 39.63581 -105.36962 17306 ft 359 kts 249°
2026-04-20 01:16 39.62599 -105.39950 17806 ft 361 kts 249°
2026-04-20 01:17 39.61606 -105.42965 18272 ft 364 kts 249°
2026-04-20 01:17 39.60608 -105.45984 18782 ft 365 kts 249°
2026-04-20 01:17 39.59604 -105.49024 19226 ft 367 kts 249°
2026-04-20 01:17 39.58592 -105.52082 19657 ft 369 kts 249°
2026-04-20 01:18 39.57567 -105.55152 20074 ft 372 kts 250°
2026-04-20 01:18 39.56538 -105.58236 20491 ft 374 kts 250°
2026-04-20 01:18 39.55501 -105.61329 20954 ft 375 kts 250°
2026-04-20 01:18 39.54512 -105.64459 21377 ft 376 kts 253°
2026-04-20 01:19 39.53643 -105.67662 21772 ft 378 kts 254°
2026-04-20 01:19 39.52795 -105.70844 22145 ft 380 kts 254°
2026-04-20 01:19 39.51918 -105.74089 22513 ft 382 kts 254°
2026-04-20 01:19 39.51024 -105.77351 22882 ft 386 kts 254°
2026-04-20 01:20 39.50124 -105.80618 23288 ft 386 kts 254°
2026-04-20 01:20 39.49218 -105.83898 23691 ft 387 kts 254°
2026-04-20 01:20 39.48303 -105.87186 24031 ft 389 kts 254°
2026-04-20 01:20 39.47383 -105.90501 24318 ft 391 kts 254°
2026-04-20 01:21 39.46454 -105.93831 24696 ft 394 kts 254°
2026-04-20 01:21 39.45537 -105.97117 25111 ft 394 kts 254°
2026-04-20 01:21 39.44601 -106.00461 25450 ft 396 kts 254°
2026-04-20 01:21 39.43657 -106.03823 25784 ft 398 kts 254°
2026-04-20 01:22 39.42708 -106.07196 26127 ft 399 kts 253°
2026-04-20 01:22 39.41761 -106.10576 26464 ft 401 kts 253°
2026-04-20 01:22 39.40807 -106.13969 26822 ft 403 kts 253°
2026-04-20 01:22 39.39846 -106.17374 27239 ft 404 kts 253°
2026-04-20 01:23 39.38885 -106.20795 27623 ft 405 kts 253°
2026-04-20 01:23 39.37918 -106.24223 28032 ft 407 kts 253°
2026-04-20 01:23 39.36941 -106.27673 28397 ft 409 kts 253°
2026-04-20 01:23 39.35959 -106.31134 28785 ft 411 kts 253°
2026-04-20 01:24 39.34973 -106.34611 29168 ft 413 kts 253°
2026-04-20 01:24 39.33985 -106.38091 29552 ft 414 kts 253°
2026-04-20 01:24 39.32989 -106.41589 29926 ft 416 kts 253°
2026-04-20 01:24 39.31987 -106.45106 30313 ft 418 kts 253°
2026-04-20 01:25 39.30981 -106.48637 30729 ft 420 kts 253°
2026-04-20 01:25 39.29968 -106.52185 31121 ft 422 kts 253°
2026-04-20 01:25 39.28949 -106.55754 31449 ft 425 kts 253°
2026-04-20 01:25 39.27920 -106.59344 31802 ft 428 kts 253°
2026-04-20 01:26 39.26887 -106.62949 32162 ft 429 kts 253°
2026-04-20 01:26 39.25847 -106.66571 32480 ft 432 kts 253°
2026-04-20 01:26 39.24743 -106.70196 32809 ft 436 kts 250°
2026-04-20 01:26 39.23295 -106.73666 33127 ft 443 kts 241°
2026-04-20 01:27 39.21543 -106.76964 33447 ft 447 kts 239°
2026-04-20 01:27 39.19708 -106.80203 33732 ft 450 kts 238°
2026-04-20 01:27 39.17823 -106.83434 34017 ft 452 kts 238°
2026-04-20 01:27 39.15918 -106.86667 34327 ft 454 kts 238°
2026-04-20 01:28 39.14010 -106.89911 34627 ft 455 kts 238°
2026-04-20 01:28 39.12099 -106.93176 34882 ft 456 kts 238°
2026-04-20 01:28 39.10201 -106.96431 35181 ft 455 kts 238°
2026-04-20 01:28 39.08305 -106.99701 35552 ft 454 kts 238°
2026-04-20 01:29 39.06442 -107.02900 35974 ft 451 kts 238°
2026-04-20 01:29 39.04561 -107.06132 36333 ft 451 kts 238°
2026-04-20 01:29 39.02682 -107.09356 36683 ft 450 kts 237°
2026-04-20 01:29 39.00808 -107.12562 37044 ft 448 kts 238°
2026-04-20 01:30 38.98942 -107.15756 37469 ft 445 kts 238°
2026-04-20 01:30 38.97091 -107.18927 37906 ft 442 kts 238°
2026-04-20 01:30 38.95254 -107.22072 38310 ft 438 kts 238°
2026-04-20 01:30 38.93432 -107.25189 38705 ft 435 kts 238°
2026-04-20 01:31 38.91618 -107.28291 39009 ft 434 kts 237°
2026-04-20 01:31 38.89806 -107.31388 39253 ft 434 kts 237°
2026-04-20 01:31 38.87989 -107.34491 39519 ft 434 kts 237°
2026-04-20 01:31 38.86178 -107.37576 39793 ft 432 kts 237°
2026-04-20 01:32 38.84369 -107.40657 39993 ft 433 kts 237°
2026-04-20 01:32 38.82555 -107.43741 40191 ft 434 kts 237°
2026-04-20 01:32 38.78892 -107.49966 40253 ft 439 kts 237°
2026-04-20 01:33 38.75215 -107.56193 40217 ft 438 kts 237°
2026-04-20 01:33 38.71540 -107.62405 40197 ft 437 kts 237°
2026-04-20 01:34 38.67867 -107.68603 40195 ft 437 kts 237°
2026-04-20 01:34 38.64190 -107.74799 40184 ft 437 kts 237°
2026-04-20 01:35 38.60507 -107.80989 40178 ft 437 kts 237°
2026-04-20 01:35 38.56823 -107.87163 40181 ft 436 kts 237°
2026-04-20 01:36 38.53144 -107.93330 40182 ft 436 kts 237°
2026-04-20 01:36 38.49488 -107.99445 40183 ft 436 kts 237°
2026-04-20 01:37 38.45803 -108.05597 40180 ft 436 kts 236°
2026-04-20 01:37 38.42109 -108.11748 40194 ft 437 kts 236°
2026-04-20 01:38 38.38410 -108.17898 40203 ft 436 kts 236°
2026-04-20 01:38 38.34713 -108.24030 40209 ft 436 kts 236°
2026-04-20 01:39 38.31644 -108.29112 40220 ft 436 kts 236°
2026-04-20 01:39 38.27944 -108.35231 40230 ft 436 kts 236°
2026-04-20 01:40 38.24246 -108.41335 40236 ft 436 kts 236°
2026-04-20 01:40 38.20539 -108.47441 40250 ft 436 kts 236°
2026-04-20 01:41 38.16833 -108.53534 40255 ft 436 kts 236°
2026-04-20 01:41 38.13120 -108.59628 40277 ft 436 kts 236°
2026-04-20 01:42 38.09402 -108.65718 40275 ft 436 kts 236°
2026-04-20 01:42 38.05679 -108.71805 40262 ft 437 kts 236°
2026-04-20 01:43 38.01944 -108.77901 40227 ft 437 kts 236°
2026-04-20 01:43 37.98239 -108.83937 40222 ft 437 kts 235°
2026-04-20 01:44 37.94501 -108.90012 40223 ft 437 kts 235°
2026-04-20 01:44 37.90767 -108.96074 40246 ft 436 kts 235°
2026-04-20 01:45 37.87029 -109.02129 40246 ft 437 kts 235°
2026-04-20 01:45 37.83285 -109.08184 40250 ft 437 kts 235°
2026-04-20 01:46 37.79534 -109.14237 40229 ft 437 kts 234°
2026-04-20 01:46 37.75777 -109.20290 40230 ft 437 kts 234°
2026-04-20 01:47 37.72016 -109.26340 40221 ft 438 kts 234°
2026-04-20 01:47 37.68250 -109.32384 40208 ft 438 kts 234°
2026-04-20 01:48 37.64480 -109.38424 40188 ft 438 kts 234°
2026-04-20 01:48 37.60704 -109.44461 40168 ft 438 kts 234°
2026-04-20 01:49 37.56927 -109.50490 40165 ft 438 kts 234°
2026-04-20 01:49 37.53146 -109.56515 40163 ft 438 kts 234°
2026-04-20 01:50 37.49362 -109.62534 40166 ft 438 kts 234°
2026-04-20 01:50 37.45603 -109.68501 40160 ft 438 kts 234°
2026-04-20 01:51 37.41815 -109.74503 40157 ft 438 kts 234°
2026-04-20 01:51 37.38023 -109.80503 40152 ft 438 kts 234°
2026-04-20 01:52 37.34231 -109.86491 40148 ft 438 kts 234°
2026-04-20 01:52 37.30432 -109.92478 40137 ft 438 kts 234°
2026-04-20 01:53 37.26629 -109.98462 40132 ft 438 kts 233°
2026-04-20 01:53 37.22828 -110.04434 40118 ft 438 kts 233°
2026-04-20 01:54 37.19022 -110.10403 40119 ft 438 kts 233°
2026-04-20 01:54 37.15209 -110.16368 40110 ft 438 kts 233°
2026-04-20 01:55 37.11397 -110.22320 40111 ft 438 kts 233°
2026-04-20 01:55 37.07584 -110.28265 40109 ft 438 kts 233°
2026-04-20 01:56 37.03792 -110.34168 40101 ft 438 kts 233°
2026-04-20 01:56 36.99974 -110.40100 40103 ft 438 kts 233°
2026-04-20 01:57 36.96148 -110.46034 40100 ft 438 kts 233°
2026-04-20 01:57 36.92321 -110.51959 40100 ft 438 kts 233°
2026-04-20 01:58 36.88498 -110.57867 40122 ft 437 kts 233°
2026-04-20 01:58 36.84666 -110.63779 40092 ft 437 kts 233°
2026-04-20 01:59 36.80852 -110.69651 40092 ft 437 kts 233°
2026-04-20 01:59 36.77018 -110.75546 40091 ft 437 kts 233°
2026-04-20 02:00 36.73182 -110.81435 40091 ft 437 kts 232°
2026-04-20 02:00 36.69345 -110.87312 40091 ft 437 kts 232°
2026-04-20 02:01 36.65529 -110.93147 40092 ft 437 kts 232°
2026-04-20 02:01 36.61680 -110.99023 40091 ft 437 kts 232°
2026-04-20 02:02 36.57829 -111.04893 40090 ft 437 kts 232°
2026-04-20 02:02 36.53983 -111.10744 40091 ft 437 kts 232°
2026-04-20 02:03 36.50123 -111.16606 40091 ft 437 kts 232°
2026-04-20 02:03 36.46267 -111.22451 40092 ft 437 kts 232°
2026-04-20 02:04 36.42410 -111.28289 40098 ft 437 kts 232°
2026-04-20 02:04 36.38553 -111.34116 40100 ft 437 kts 232°
2026-04-20 02:05 36.34693 -111.39938 40108 ft 437 kts 232°
2026-04-20 02:05 36.30859 -111.45710 40109 ft 436 kts 232°
2026-04-20 02:06 36.26998 -111.51514 40130 ft 436 kts 232°
2026-04-20 02:06 36.23136 -111.57309 40137 ft 436 kts 232°
2026-04-20 02:07 36.19274 -111.63093 40146 ft 436 kts 232°
2026-04-20 02:07 36.15407 -111.68876 40145 ft 436 kts 232°
2026-04-20 02:08 36.11532 -111.74666 40165 ft 437 kts 232°
2026-04-20 02:08 36.07814 -111.80591 40165 ft 435 kts 238°
2026-04-20 02:09 36.05153 -111.87292 40173 ft 435 kts 247°
2026-04-20 02:09 36.02901 -111.94225 40175 ft 435 kts 248°
2026-04-20 02:10 36.00710 -112.01186 40182 ft 435 kts 248°
2026-04-20 02:10 35.98503 -112.08141 40191 ft 435 kts 248°
2026-04-20 02:11 35.96282 -112.15072 40186 ft 435 kts 248°
2026-04-20 02:11 35.94043 -112.22020 40180 ft 435 kts 248°
2026-04-20 02:12 35.91820 -112.28900 40187 ft 435 kts 248°
2026-04-20 02:12 35.89576 -112.35831 40181 ft 435 kts 248°
2026-04-20 02:13 35.87330 -112.42752 40177 ft 435 kts 248°
2026-04-20 02:13 35.85078 -112.49675 40174 ft 434 kts 248°
2026-04-20 02:14 35.82828 -112.56577 40174 ft 434 kts 248°
2026-04-20 02:14 35.80572 -112.63479 40165 ft 434 kts 248°
2026-04-20 02:15 35.78310 -112.70385 40165 ft 435 kts 247°
2026-04-20 02:15 35.76043 -112.77292 40156 ft 435 kts 247°
2026-04-20 02:16 35.73773 -112.84189 40155 ft 435 kts 247°
2026-04-20 02:16 35.71498 -112.91089 40147 ft 435 kts 247°
2026-04-20 02:17 35.69218 -112.97986 40138 ft 435 kts 247°
2026-04-20 02:17 35.66933 -113.04880 40134 ft 435 kts 247°
2026-04-20 02:18 35.64646 -113.11767 40109 ft 435 kts 247°
2026-04-20 02:18 35.62352 -113.18659 40100 ft 435 kts 247°
2026-04-20 02:19 35.60071 -113.25505 40084 ft 436 kts 247°
2026-04-20 02:19 35.57768 -113.32399 40068 ft 436 kts 246°
2026-04-20 02:20 35.55453 -113.39295 40059 ft 436 kts 246°
2026-04-20 02:20 35.53136 -113.46187 40055 ft 436 kts 246°
2026-04-20 02:21 35.49660 -113.56505 40025 ft 436 kts 246°
2026-04-20 02:22 35.47333 -113.63390 40017 ft 437 kts 246°
2026-04-20 02:22 35.45002 -113.70276 40003 ft 437 kts 246°
2026-04-20 02:23 35.42666 -113.77158 39999 ft 437 kts 246°
2026-04-20 02:23 35.40328 -113.84026 39997 ft 437 kts 246°
2026-04-20 02:24 35.38383 -113.89735 40001 ft 437 kts 246°
2026-04-20 02:24 35.35654 -113.97725 39988 ft 437 kts 246°
2026-04-20 02:25 35.33302 -114.04585 39991 ft 437 kts 246°
2026-04-20 02:25 35.31330 -114.10335 39987 ft 437 kts 246°
2026-04-20 02:26 35.28975 -114.17198 39960 ft 437 kts 246°
2026-04-20 02:26 35.26612 -114.24056 39943 ft 437 kts 246°
2026-04-20 02:27 35.24241 -114.30912 39910 ft 438 kts 246°
2026-04-20 02:27 35.21884 -114.37727 39876 ft 438 kts 246°
2026-04-20 02:28 35.19508 -114.44581 39851 ft 437 kts 246°
2026-04-20 02:28 35.17129 -114.51428 39840 ft 437 kts 246°
2026-04-20 02:29 35.14742 -114.58270 39829 ft 438 kts 246°
2026-04-20 02:29 35.12359 -114.65105 39838 ft 437 kts 246°
2026-04-20 02:30 35.09983 -114.71948 39837 ft 437 kts 246°
2026-04-20 02:30 35.07609 -114.78766 39838 ft 437 kts 246°
2026-04-20 02:31 35.05231 -114.85591 39837 ft 437 kts 246°
2026-04-20 02:31 35.02838 -114.92359 39848 ft 436 kts 243°
2026-04-20 02:32 34.99973 -114.98885 39858 ft 436 kts 240°
2026-04-20 02:32 34.97089 -115.05390 39860 ft 436 kts 241°
2026-04-20 02:33 34.94237 -115.11915 39859 ft 436 kts 241°
2026-04-20 02:33 34.92825 -115.15155 39492 ft 431 kts 241°
2026-04-20 02:33 34.91421 -115.18381 38759 ft 432 kts 241°
2026-04-20 02:33 34.90005 -115.21627 37949 ft 435 kts 241°
2026-04-20 02:34 34.88579 -115.24897 37121 ft 439 kts 240°
2026-04-20 02:34 34.87157 -115.28160 36284 ft 442 kts 240°
2026-04-20 02:34 34.85707 -115.31477 35391 ft 446 kts 240°
2026-04-20 02:34 34.84238 -115.34832 34370 ft 453 kts 239°
2026-04-20 02:35 34.82745 -115.38240 33393 ft 459 kts 239°
2026-04-20 02:35 34.81240 -115.41676 32736 ft 458 kts 239°
2026-04-20 02:35 34.79749 -115.45080 32420 ft 455 kts 239°
2026-04-20 02:35 34.78303 -115.48499 32191 ft 455 kts 243°
2026-04-20 02:36 34.77022 -115.52012 31974 ft 454 kts 244°
2026-04-20 02:36 34.75772 -115.55530 31822 ft 452 kts 244°
2026-04-20 02:36 34.74513 -115.59033 31712 ft 452 kts 244°
2026-04-20 02:37 34.71985 -115.65963 31544 ft 450 kts 243°
2026-04-20 02:37 34.69430 -115.72903 31397 ft 449 kts 243°
2026-04-20 02:38 34.66869 -115.79829 31266 ft 449 kts 243°
2026-04-20 02:38 34.64309 -115.86733 31168 ft 448 kts 243°
2026-04-20 02:39 34.61752 -115.93638 31094 ft 448 kts 244°
2026-04-20 02:39 34.59210 -116.00546 31044 ft 448 kts 244°
2026-04-20 02:40 34.56664 -116.07444 30993 ft 447 kts 244°
2026-04-20 02:40 34.54114 -116.14332 30940 ft 447 kts 244°
2026-04-20 02:41 34.51563 -116.21211 30883 ft 447 kts 244°
2026-04-20 02:41 34.49007 -116.28083 30845 ft 447 kts 244°
2026-04-20 02:42 34.46452 -116.34942 30773 ft 445 kts 244°
2026-04-20 02:42 34.45196 -116.38308 30252 ft 443 kts 244°
2026-04-20 02:42 34.43929 -116.41699 29713 ft 440 kts 244°
2026-04-20 02:42 34.42673 -116.45059 29246 ft 434 kts 244°
2026-04-20 02:43 34.41430 -116.48382 29075 ft 434 kts 244°
2026-04-20 02:43 34.40126 -116.51672 28817 ft 432 kts 242°
2026-04-20 02:43 34.38778 -116.54901 28242 ft 429 kts 242°
2026-04-20 02:43 34.37436 -116.58106 27678 ft 426 kts 242°
2026-04-20 02:44 34.36107 -116.61296 27128 ft 423 kts 242°
2026-04-20 02:44 34.34805 -116.64432 26944 ft 410 kts 242°
2026-04-20 02:44 34.33540 -116.67486 26544 ft 404 kts 242°
2026-04-20 02:44 34.32297 -116.70531 26011 ft 401 kts 243°
2026-04-20 02:45 34.31085 -116.73554 25492 ft 398 kts 243°
2026-04-20 02:45 34.29881 -116.76556 24966 ft 395 kts 243°
2026-04-20 02:45 34.28685 -116.79532 24445 ft 392 kts 243°
2026-04-20 02:45 34.27492 -116.82495 23914 ft 390 kts 243°
2026-04-20 02:46 34.26310 -116.85431 23392 ft 387 kts 243°
2026-04-20 02:46 34.25151 -116.88303 22863 ft 384 kts 243°
2026-04-20 02:46 34.23980 -116.91201 22324 ft 382 kts 243°
2026-04-20 02:46 34.22821 -116.94068 21790 ft 379 kts 243°
2026-04-20 02:47 34.21672 -116.96917 21254 ft 376 kts 243°
2026-04-20 02:47 34.20694 -116.99838 20714 ft 375 kts 249°
2026-04-20 02:47 34.19828 -117.02805 20206 ft 375 kts 249°
2026-04-20 02:47 34.18953 -117.05804 19702 ft 381 kts 249°
2026-04-20 02:48 34.18090 -117.08835 19190 ft 382 kts 250°
2026-04-20 02:48 34.17285 -117.11920 18627 ft 380 kts 251°
2026-04-20 02:48 34.16515 -117.14917 18109 ft 376 kts 250°
2026-04-20 02:48 34.15738 -117.17914 17600 ft 372 kts 250°
2026-04-20 02:49 34.14965 -117.20875 17110 ft 368 kts 250°
2026-04-20 02:49 34.14197 -117.23811 16618 ft 365 kts 250°
2026-04-20 02:49 34.13435 -117.26720 16127 ft 362 kts 250°
2026-04-20 02:49 34.12674 -117.29608 15649 ft 360 kts 250°
2026-04-20 02:50 34.11918 -117.32474 15175 ft 357 kts 250°
2026-04-20 02:50 34.11167 -117.35320 14706 ft 354 kts 250°
2026-04-20 02:50 34.10424 -117.38132 14237 ft 350 kts 250°
2026-04-20 02:50 34.09687 -117.40917 13764 ft 348 kts 250°
2026-04-20 02:51 34.08953 -117.43688 13379 ft 343 kts 250°
2026-04-20 02:51 34.08246 -117.46363 13250 ft 328 kts 250°
2026-04-20 02:51 34.07565 -117.48937 13022 ft 318 kts 249°
2026-04-20 02:51 34.06895 -117.51482 12608 ft 317 kts 250°
2026-04-20 02:52 34.06248 -117.54015 12198 ft 316 kts 250°
2026-04-20 02:52 34.05614 -117.56508 11792 ft 314 kts 250°
2026-04-20 02:52 34.04966 -117.59046 11382 ft 312 kts 250°
2026-04-20 02:52 34.04330 -117.61539 10971 ft 310 kts 251°
2026-04-20 02:53 34.03705 -117.63981 10582 ft 308 kts 251°
2026-04-20 02:53 34.03076 -117.66437 10196 ft 306 kts 251°
2026-04-20 02:53 34.02462 -117.68861 10017 ft 296 kts 252°
2026-04-20 02:53 34.02062 -117.71262 9937 ft 289 kts 261°
2026-04-20 02:54 34.01813 -117.73666 9587 ft 290 kts 262°
2026-04-20 02:54 34.01585 -117.76080 9244 ft 290 kts 262°
2026-04-20 02:54 34.01359 -117.78491 8925 ft 288 kts 263°
2026-04-20 02:54 34.01131 -117.80882 8553 ft 286 kts 262°
2026-04-20 02:55 34.00902 -117.83255 8228 ft 284 kts 262°
2026-04-20 02:55 34.00676 -117.85609 7924 ft 283 kts 262°
2026-04-20 02:55 34.00447 -117.87958 7566 ft 281 kts 262°
2026-04-20 02:55 34.00216 -117.90300 7234 ft 280 kts 262°
2026-04-20 02:56 33.99986 -117.92619 6938 ft 278 kts 262°
2026-04-20 02:56 33.99758 -117.94929 6569 ft 276 kts 262°
2026-04-20 02:56 33.99533 -117.97222 6236 ft 275 kts 262°
2026-04-20 02:56 33.99307 -117.99504 6004 ft 274 kts 262°
2026-04-20 02:57 33.99083 -118.01784 5657 ft 274 kts 262°
2026-04-20 02:57 33.98856 -118.04055 5216 ft 272 kts 262°
2026-04-20 02:57 33.98631 -118.06310 4966 ft 270 kts 262°
2026-04-20 02:57 33.98407 -118.08554 4537 ft 270 kts 262°
2026-04-20 02:58 33.98183 -118.10801 4130 ft 268 kts 262°
2026-04-20 02:58 33.97964 -118.12981 3951 ft 256 kts 262°
2026-04-20 02:58 33.97756 -118.15067 3807 ft 245 kts 262°
2026-04-20 02:58 33.97563 -118.17060 3667 ft 234 kts 262°
2026-04-20 02:59 33.97372 -118.18957 3536 ft 223 kts 261°
2026-04-20 02:59 33.97187 -118.20781 3312 ft 217 kts 261°
2026-04-20 02:59 33.97007 -118.22567 3040 ft 208 kts 261°
2026-04-20 02:59 33.96838 -118.24236 2746 ft 194 kts 261°
2026-04-20 03:00 33.96679 -118.25786 2495 ft 178 kts 261°
2026-04-20 03:00 33.96536 -118.27192 2255 ft 165 kts 262°
2026-04-20 03:00 33.96401 -118.28512 2049 ft 152 kts 262°
2026-04-20 03:00 33.96275 -118.29757 1843 ft 148 kts 262°
2026-04-20 03:01 33.96150 -118.30977 1646 ft 147 kts 262°
2026-04-20 03:01 33.96025 -118.32192 1450 ft 146 kts 263°
2026-04-20 03:01 33.95903 -118.33400 1262 ft 145 kts 263°
2026-04-20 03:01 33.95779 -118.34603 1067 ft 144 kts 263°
2026-04-20 03:02 33.95661 -118.35802 877 ft 144 kts 263°
2026-04-20 03:02 33.95549 -118.36996 664 ft 143 kts 262°
2026-04-20 03:02 33.95400 -118.38177 489 ft 146 kts 262°
2026-04-20 03:02 33.95287 -118.39369 282 ft 143 kts 264°
2026-04-20 03:03 33.95195 -118.40393 146 ft 144 kts 263°
2026-04-20 03:03 33.95076 -118.41511 132 ft 116 kts 262°
2026-04-20 03:03 33.95002 -118.42229 132 ft 67 kts 261°
2026-04-20 03:03 33.94931 -118.42551 132 ft 17 kts 243°
2026-04-20 03:04 33.94900 -118.42610 131 ft 3 kts 235°
2026-04-20 03:04 33.94880 -118.42642 132 ft 6 kts 233°
2026-04-20 03:04 33.94832 -118.42702 129 ft 20 kts 223°
2026-04-20 03:04 33.94700 -118.42776 132 ft 14 kts 184°
2026-04-20 03:05 33.94648 -118.42744 132 ft 7 kts 115°
2026-04-20 03:05 33.94639 -118.42681 132 ft 8 kts 91°
2026-04-20 03:05 33.94645 -118.42608 132 ft 9 kts 83°
2026-04-20 03:05 33.94654 -118.42518 132 ft 13 kts 82°
2026-04-20 03:06 33.94646 -118.42403 130 ft 12 kts 140°
2026-04-20 03:06 33.94571 -118.42362 125 ft 13 kts 160°
2026-04-20 03:06 33.94485 -118.42321 121 ft 11 kts 141°
2026-04-20 03:06 33.94415 -118.42282 124 ft 12 kts 160°